Year,Month,Day,Hour,Minute,Value (Times are PST for barometer in hPa)
2012,12,17,00,00,977.91
2012,12,17,00,01,977.89
2012,12,17,00,02,977.89
2012,12,17,00,03,977.89
2012,12,17,00,04,977.89
2012,12,17,00,05,977.89
2012,12,17,00,06,977.89
2012,12,17,00,07,977.89
2012,12,17,00,08,977.89
2012,12,17,00,09,977.89
2012,12,17,00,10,977.89
2012,12,17,00,11,977.89
2012,12,17,00,12,977.89
2012,12,17,00,13,977.89
2012,12,17,00,14,977.89
2012,12,17,00,15,977.60
2012,12,17,00,16,977.58
2012,12,17,00,17,977.58
2012,12,17,00,18,977.58
2012,12,17,00,19,977.58
2012,12,17,00,20,977.58
2012,12,17,00,21,977.58
2012,12,17,00,22,977.58
2012,12,17,00,23,977.58
2012,12,17,00,24,977.58
2012,12,17,00,25,977.58
2012,12,17,00,26,977.58
2012,12,17,00,27,977.58
2012,12,17,00,28,977.58
2012,12,17,00,29,977.58
2012,12,17,00,30,977.58
2012,12,17,00,31,977.58
2012,12,17,00,32,977.58
2012,12,17,00,33,977.58
2012,12,17,00,34,977.58
2012,12,17,00,35,977.58
2012,12,17,00,36,977.58
2012,12,17,00,37,977.58
2012,12,17,00,38,977.58
2012,12,17,00,39,977.58
2012,12,17,00,40,977.58
2012,12,17,00,41,977.58
2012,12,17,00,42,977.58
2012,12,17,00,43,977.58
2012,12,17,00,44,977.58
2012,12,17,00,45,977.55
2012,12,17,00,46,977.55
2012,12,17,00,47,977.55
2012,12,17,00,48,977.55
2012,12,17,00,49,977.55
2012,12,17,00,50,977.55
2012,12,17,00,51,977.55
2012,12,17,00,52,977.55
2012,12,17,00,53,977.55
2012,12,17,00,54,977.55
2012,12,17,00,55,977.55
2012,12,17,00,56,977.55
2012,12,17,00,57,977.55
2012,12,17,00,58,977.55
2012,12,17,00,59,977.55
2012,12,17,01,00,977.58
2012,12,17,01,01,977.58
2012,12,17,01,02,977.58
2012,12,17,01,03,977.58
2012,12,17,01,04,977.58
2012,12,17,01,05,977.58
2012,12,17,01,06,977.58
2012,12,17,01,07,977.58
2012,12,17,01,08,977.58
2012,12,17,01,09,977.58
2012,12,17,01,10,977.58
2012,12,17,01,11,977.58
2012,12,17,01,12,977.58
2012,12,17,01,13,977.58
2012,12,17,01,14,977.58
2012,12,17,01,15,978.00
2012,12,17,01,16,978.02
2012,12,17,01,17,978.02
2012,12,17,01,18,978.02
2012,12,17,01,19,978.02
2012,12,17,01,20,978.02
2012,12,17,01,21,978.02
2012,12,17,01,22,978.02
2012,12,17,01,23,978.02
2012,12,17,01,24,978.02
2012,12,17,01,25,978.02
2012,12,17,01,26,978.02
2012,12,17,01,27,978.02
2012,12,17,01,28,978.02
2012,12,17,01,29,978.02
2012,12,17,01,30,977.76
2012,12,17,01,31,977.75
2012,12,17,01,32,977.75
2012,12,17,01,33,977.75
2012,12,17,01,34,977.75
2012,12,17,01,35,977.75
2012,12,17,01,36,977.75
2012,12,17,01,37,977.75
2012,12,17,01,38,977.75
2012,12,17,01,39,977.75
2012,12,17,01,40,977.75
2012,12,17,01,41,977.75
2012,12,17,01,42,977.75
2012,12,17,01,43,977.75
2012,12,17,01,44,977.75
2012,12,17,01,45,977.63
2012,12,17,01,46,977.62
2012,12,17,01,47,977.62
2012,12,17,01,48,977.62
2012,12,17,01,49,977.62
2012,12,17,01,50,977.62
2012,12,17,01,51,977.62
2012,12,17,01,52,977.62
2012,12,17,01,53,977.62
2012,12,17,01,54,977.62
2012,12,17,01,55,977.62
2012,12,17,01,56,977.62
2012,12,17,01,57,977.62
2012,12,17,01,58,977.62
2012,12,17,01,59,977.62
2012,12,17,02,00,977.72
2012,12,17,02,01,977.72
2012,12,17,02,02,977.72
2012,12,17,02,03,977.72
2012,12,17,02,04,977.72
2012,12,17,02,05,977.72
2012,12,17,02,06,977.72
2012,12,17,02,07,977.72
2012,12,17,02,08,977.72
2012,12,17,02,09,977.72
2012,12,17,02,10,977.72
2012,12,17,02,11,977.72
2012,12,17,02,12,977.72
2012,12,17,02,13,977.72
2012,12,17,02,14,977.72
2012,12,17,02,15,977.62
2012,12,17,02,16,977.62
2012,12,17,02,17,977.62
2012,12,17,02,18,977.62
2012,12,17,02,19,977.62
2012,12,17,02,20,977.62
2012,12,17,02,21,977.62
2012,12,17,02,22,977.62
2012,12,17,02,23,977.62
2012,12,17,02,24,977.62
2012,12,17,02,25,977.62
2012,12,17,02,26,977.62
2012,12,17,02,27,977.62
2012,12,17,02,28,977.62
2012,12,17,02,29,977.62
2012,12,17,02,30,977.97
2012,12,17,02,31,977.99
2012,12,17,02,32,977.99
2012,12,17,02,33,977.99
2012,12,17,02,34,977.99
2012,12,17,02,35,977.99
2012,12,17,02,36,977.99
2012,12,17,02,37,977.99
2012,12,17,02,38,977.99
2012,12,17,02,39,977.99
2012,12,17,02,40,977.99
2012,12,17,02,41,977.99
2012,12,17,02,42,977.99
2012,12,17,02,43,977.99
2012,12,17,02,44,977.99
2012,12,17,02,45,978.17
2012,12,17,02,46,978.19
2012,12,17,02,47,978.19
2012,12,17,02,48,978.19
2012,12,17,02,49,978.19
2012,12,17,02,50,978.19
2012,12,17,02,51,978.19
2012,12,17,02,52,978.19
2012,12,17,02,53,978.19
2012,12,17,02,54,978.19
2012,12,17,02,55,978.19
2012,12,17,02,56,978.19
2012,12,17,02,57,978.19
2012,12,17,02,58,978.19
2012,12,17,02,59,978.19
2012,12,17,03,00,978.58
2012,12,17,03,01,978.60
2012,12,17,03,02,978.60
2012,12,17,03,03,978.60
2012,12,17,03,04,978.60
2012,12,17,03,05,978.60
2012,12,17,03,06,978.60
2012,12,17,03,07,978.60
2012,12,17,03,08,978.60
2012,12,17,03,09,978.60
2012,12,17,03,10,978.60
2012,12,17,03,11,978.60
2012,12,17,03,12,978.60
2012,12,17,03,13,978.60
2012,12,17,03,14,978.60
2012,12,17,03,15,978.60
2012,12,17,03,16,978.60
2012,12,17,03,17,978.60
2012,12,17,03,18,978.60
2012,12,17,03,19,978.60
2012,12,17,03,20,978.60
2012,12,17,03,21,978.60
2012,12,17,03,22,978.60
2012,12,17,03,23,978.60
2012,12,17,03,24,978.60
2012,12,17,03,25,978.60
2012,12,17,03,26,978.60
2012,12,17,03,27,978.60
2012,12,17,03,28,978.60
2012,12,17,03,29,978.60
2012,12,17,03,30,978.90
2012,12,17,03,31,978.90
2012,12,17,03,32,978.90
2012,12,17,03,33,978.90
2012,12,17,03,34,978.90
2012,12,17,03,35,978.90
2012,12,17,03,36,978.90
2012,12,17,03,37,978.90
2012,12,17,03,38,978.90
2012,12,17,03,39,978.90
2012,12,17,03,40,978.90
2012,12,17,03,41,978.90
2012,12,17,03,42,978.90
2012,12,17,03,43,978.90
2012,12,17,03,44,978.90
2012,12,17,03,45,979.51
2012,12,17,03,46,979.51
2012,12,17,03,47,979.51
2012,12,17,03,48,979.51
2012,12,17,03,49,979.51
2012,12,17,03,50,979.51
2012,12,17,03,51,979.51
2012,12,17,03,52,979.51
2012,12,17,03,53,979.51
2012,12,17,03,54,979.51
2012,12,17,03,55,979.51
2012,12,17,03,56,979.51
2012,12,17,03,57,979.51
2012,12,17,03,58,979.51
2012,12,17,03,59,979.51
2012,12,17,04,00,980.25
2012,12,17,04,01,980.29
2012,12,17,04,02,980.29
2012,12,17,04,03,980.29
2012,12,17,04,04,980.29
2012,12,17,04,05,980.29
2012,12,17,04,06,980.29
2012,12,17,04,07,980.29
2012,12,17,04,08,980.29
2012,12,17,04,09,980.29
2012,12,17,04,10,980.29
2012,12,17,04,11,980.29
2012,12,17,04,12,980.29
2012,12,17,04,13,980.29
2012,12,17,04,14,980.29
2012,12,17,04,15,981.10
2012,12,17,04,16,981.14
2012,12,17,04,17,981.14
2012,12,17,04,18,981.14
2012,12,17,04,19,981.14
2012,12,17,04,20,981.14
2012,12,17,04,21,981.14
2012,12,17,04,22,981.14
2012,12,17,04,23,981.14
2012,12,17,04,24,981.14
2012,12,17,04,25,981.14
2012,12,17,04,26,981.14
2012,12,17,04,27,981.14
2012,12,17,04,28,981.14
2012,12,17,04,29,981.14
2012,12,17,04,30,982.23
2012,12,17,04,31,982.29
2012,12,17,04,32,982.29
2012,12,17,04,33,982.29
2012,12,17,04,34,982.29
2012,12,17,04,35,982.29
2012,12,17,04,36,982.29
2012,12,17,04,37,982.29
2012,12,17,04,38,982.29
2012,12,17,04,39,982.29
2012,12,17,04,40,982.29
2012,12,17,04,41,982.29
2012,12,17,04,42,982.29
2012,12,17,04,43,982.29
2012,12,17,04,44,982.29
2012,12,17,04,45,982.77
2012,12,17,04,46,982.80
2012,12,17,04,47,982.80
2012,12,17,04,48,982.80
2012,12,17,04,49,982.80
2012,12,17,04,50,982.80
2012,12,17,04,51,982.80
2012,12,17,04,52,982.80
2012,12,17,04,53,982.80
2012,12,17,04,54,982.80
2012,12,17,04,55,982.80
2012,12,17,04,56,982.80
2012,12,17,04,57,982.80
2012,12,17,04,58,982.80
2012,12,17,04,59,982.80
2012,12,17,05,00,983.57
2012,12,17,05,01,983.61
2012,12,17,05,02,983.61
2012,12,17,05,03,983.61
2012,12,17,05,04,983.61
2012,12,17,05,05,983.61
2012,12,17,05,06,983.61
2012,12,17,05,07,983.61
2012,12,17,05,08,983.61
2012,12,17,05,09,983.61
2012,12,17,05,10,983.61
2012,12,17,05,11,983.61
2012,12,17,05,12,983.61
2012,12,17,05,13,983.61
2012,12,17,05,14,983.61
2012,12,17,05,15,984.48
2012,12,17,05,16,984.53
2012,12,17,05,17,984.53
2012,12,17,05,18,984.53
2012,12,17,05,19,984.53
2012,12,17,05,20,984.53
2012,12,17,05,21,984.53
2012,12,17,05,22,984.53
2012,12,17,05,23,984.53
2012,12,17,05,24,984.53
2012,12,17,05,25,984.53
2012,12,17,05,26,984.53
2012,12,17,05,27,984.53
2012,12,17,05,28,984.53
2012,12,17,05,29,984.53
2012,12,17,05,30,984.97
2012,12,17,05,31,984.97
2012,12,17,05,32,984.97
2012,12,17,05,33,984.97
2012,12,17,05,34,984.97
2012,12,17,05,35,984.97
2012,12,17,05,36,984.97
2012,12,17,05,37,984.97
2012,12,17,05,38,984.97
2012,12,17,05,39,984.97
2012,12,17,05,40,984.97
2012,12,17,05,41,984.97
2012,12,17,05,42,984.97
2012,12,17,05,43,984.97
2012,12,17,05,44,984.97
2012,12,17,05,45,985.42
2012,12,17,05,46,985.44
2012,12,17,05,47,985.44
2012,12,17,05,48,985.44
2012,12,17,05,49,985.44
2012,12,17,05,50,985.44
2012,12,17,05,51,985.44
2012,12,17,05,52,985.44
2012,12,17,05,53,985.44
2012,12,17,05,54,985.44
2012,12,17,05,55,985.44
2012,12,17,05,56,985.44
2012,12,17,05,57,985.44
2012,12,17,05,58,985.44
2012,12,17,05,59,985.44
2012,12,17,06,00,985.86
2012,12,17,06,01,985.88
2012,12,17,06,02,985.88
2012,12,17,06,03,985.88
2012,12,17,06,04,985.88
2012,12,17,06,05,985.88
2012,12,17,06,06,985.88
2012,12,17,06,07,985.88
2012,12,17,06,08,985.88
2012,12,17,06,09,985.88
2012,12,17,06,10,985.88
2012,12,17,06,11,985.88
2012,12,17,06,12,985.88
2012,12,17,06,13,985.88
2012,12,17,06,14,985.88
2012,12,17,06,15,986.30
2012,12,17,06,16,986.32
2012,12,17,06,17,986.32
2012,12,17,06,18,986.32
2012,12,17,06,19,986.32
2012,12,17,06,20,986.32
2012,12,17,06,21,986.32
2012,12,17,06,22,986.32
2012,12,17,06,23,986.32
2012,12,17,06,24,986.32
2012,12,17,06,25,986.32
2012,12,17,06,26,986.32
2012,12,17,06,27,986.32
2012,12,17,06,28,986.32
2012,12,17,06,29,986.32
2012,12,17,06,30,986.93
2012,12,17,06,31,986.93
2012,12,17,06,32,986.93
2012,12,17,06,33,986.93
2012,12,17,06,34,986.93
2012,12,17,06,35,986.93
2012,12,17,06,36,986.93
2012,12,17,06,37,986.93
2012,12,17,06,38,986.93
2012,12,17,06,39,986.93
2012,12,17,06,40,986.93
2012,12,17,06,41,986.93
2012,12,17,06,42,986.93
2012,12,17,06,43,986.93
2012,12,17,06,44,986.93
2012,12,17,06,45,987.63
2012,12,17,06,46,987.67
2012,12,17,06,47,987.67
2012,12,17,06,48,987.67
2012,12,17,06,49,987.67
2012,12,17,06,50,987.67
2012,12,17,06,51,987.67
2012,12,17,06,52,987.67
2012,12,17,06,53,987.67
2012,12,17,06,54,987.67
2012,12,17,06,55,987.67
2012,12,17,06,56,987.67
2012,12,17,06,57,987.67
2012,12,17,06,58,987.67
2012,12,17,06,59,987.67
2012,12,17,07,00,988.59
2012,12,17,07,01,988.59
2012,12,17,07,02,988.59
2012,12,17,07,03,988.59
2012,12,17,07,04,988.59
2012,12,17,07,05,988.59
2012,12,17,07,06,988.59
2012,12,17,07,07,988.59
2012,12,17,07,08,988.59
2012,12,17,07,09,988.59
2012,12,17,07,10,988.59
2012,12,17,07,11,988.59
2012,12,17,07,12,988.59
2012,12,17,07,13,988.59
2012,12,17,07,14,988.59
2012,12,17,07,15,989.10
2012,12,17,07,16,989.10
2012,12,17,07,17,989.10
2012,12,17,07,18,989.10
2012,12,17,07,19,989.10
2012,12,17,07,20,989.10
2012,12,17,07,21,989.10
2012,12,17,07,22,989.10
2012,12,17,07,23,989.10
2012,12,17,07,24,989.10
2012,12,17,07,25,989.10
2012,12,17,07,26,989.10
2012,12,17,07,27,989.10
2012,12,17,07,28,989.10
2012,12,17,07,29,989.10
2012,12,17,07,30,989.64
2012,12,17,07,31,989.64
2012,12,17,07,32,989.64
2012,12,17,07,33,989.64
2012,12,17,07,34,989.64
2012,12,17,07,35,989.64
2012,12,17,07,36,989.64
2012,12,17,07,37,989.64
2012,12,17,07,38,989.64
2012,12,17,07,39,989.64
2012,12,17,07,40,989.64
2012,12,17,07,41,989.64
2012,12,17,07,42,989.64
2012,12,17,07,43,989.64
2012,12,17,07,44,989.64
2012,12,17,07,45,990.12
2012,12,17,07,46,990.15
2012,12,17,07,47,990.15
2012,12,17,07,48,990.15
2012,12,17,07,49,990.15
2012,12,17,07,50,990.15
2012,12,17,07,51,990.15
2012,12,17,07,52,990.15
2012,12,17,07,53,990.15
2012,12,17,07,54,990.15
2012,12,17,07,55,990.15
2012,12,17,07,56,990.15
2012,12,17,07,57,990.15
2012,12,17,07,58,990.15
2012,12,17,07,59,990.15
2012,12,17,08,00,990.55
2012,12,17,08,01,990.55
2012,12,17,08,02,990.55
2012,12,17,08,03,990.55
2012,12,17,08,04,990.55
2012,12,17,08,05,990.55
2012,12,17,08,06,990.55
2012,12,17,08,07,990.55
2012,12,17,08,08,990.55
2012,12,17,08,09,990.55
2012,12,17,08,10,990.55
2012,12,17,08,11,990.55
2012,12,17,08,12,990.55
2012,12,17,08,13,990.55
2012,12,17,08,14,990.55
2012,12,17,08,15,991.06
2012,12,17,08,16,991.09
2012,12,17,08,17,991.09
2012,12,17,08,18,991.09
2012,12,17,08,19,991.09
2012,12,17,08,20,991.09
2012,12,17,08,21,991.09
2012,12,17,08,22,991.09
2012,12,17,08,23,991.09
2012,12,17,08,24,991.09
2012,12,17,08,25,991.09
2012,12,17,08,26,991.09
2012,12,17,08,27,991.09
2012,12,17,08,28,991.09
2012,12,17,08,29,991.09
2012,12,17,08,30,991.81
2012,12,17,08,31,991.81
2012,12,17,08,32,991.81
2012,12,17,08,33,991.81
2012,12,17,08,34,991.81
2012,12,17,08,35,991.81
2012,12,17,08,36,991.81
2012,12,17,08,37,991.81
2012,12,17,08,38,991.81
2012,12,17,08,39,991.81
2012,12,17,08,40,991.81
2012,12,17,08,41,991.81
2012,12,17,08,42,991.81
2012,12,17,08,43,991.81
2012,12,17,08,44,991.81
2012,12,17,08,45,992.62
2012,12,17,08,46,992.62
2012,12,17,08,47,992.62
2012,12,17,08,48,992.62
2012,12,17,08,49,992.62
2012,12,17,08,50,992.62
2012,12,17,08,51,992.62
2012,12,17,08,52,992.62
2012,12,17,08,53,992.62
2012,12,17,08,54,992.62
2012,12,17,08,55,992.62
2012,12,17,08,56,992.62
2012,12,17,08,57,992.62
2012,12,17,08,58,992.62
2012,12,17,08,59,992.62
2012,12,17,09,00,993.16
2012,12,17,09,01,993.19
2012,12,17,09,02,993.19
2012,12,17,09,03,993.19
2012,12,17,09,04,993.19
2012,12,17,09,05,993.19
2012,12,17,09,06,993.19
2012,12,17,09,07,993.19
2012,12,17,09,08,993.19
2012,12,17,09,09,993.19
2012,12,17,09,10,993.19
2012,12,17,09,11,993.19
2012,12,17,09,12,993.19
2012,12,17,09,13,993.19
2012,12,17,09,14,993.19
2012,12,17,09,15,993.42
2012,12,17,09,16,993.43
2012,12,17,09,17,993.43
2012,12,17,09,18,993.43
2012,12,17,09,19,993.43
2012,12,17,09,20,993.43
2012,12,17,09,21,993.43
2012,12,17,09,22,993.43
2012,12,17,09,23,993.43
2012,12,17,09,24,993.43
2012,12,17,09,25,993.43
2012,12,17,09,26,993.43
2012,12,17,09,27,993.43
2012,12,17,09,28,993.43
2012,12,17,09,29,993.43
2012,12,17,09,30,993.85
2012,12,17,09,31,993.87
2012,12,17,09,32,993.87
2012,12,17,09,33,993.87
2012,12,17,09,34,993.87
2012,12,17,09,35,993.87
2012,12,17,09,36,993.87
2012,12,17,09,37,993.87
2012,12,17,09,38,993.87
2012,12,17,09,39,993.87
2012,12,17,09,40,993.87
2012,12,17,09,41,993.87
2012,12,17,09,42,993.87
2012,12,17,09,43,993.87
2012,12,17,09,44,993.87
2012,12,17,09,45,994.74
2012,12,17,09,46,994.79
2012,12,17,09,47,994.79
2012,12,17,09,48,994.79
2012,12,17,09,49,994.79
2012,12,17,09,50,994.79
2012,12,17,09,51,994.79
2012,12,17,09,52,994.79
2012,12,17,09,53,994.79
2012,12,17,09,54,994.79
2012,12,17,09,55,994.79
2012,12,17,09,56,994.79
2012,12,17,09,57,994.79
2012,12,17,09,58,994.79
2012,12,17,09,59,994.79
2012,12,17,10,00,995.37
2012,12,17,10,01,995.40
2012,12,17,10,02,995.40
2012,12,17,10,03,995.40
2012,12,17,10,04,995.40
2012,12,17,10,05,995.40
2012,12,17,10,06,995.40
2012,12,17,10,07,995.40
2012,12,17,10,08,995.40
2012,12,17,10,09,995.40
2012,12,17,10,10,995.40
2012,12,17,10,11,995.40
2012,12,17,10,12,995.40
2012,12,17,10,13,995.40
2012,12,17,10,14,995.40
2012,12,17,10,15,995.91
2012,12,17,10,16,995.94
2012,12,17,10,17,995.94
2012,12,17,10,18,995.94
2012,12,17,10,19,995.94
2012,12,17,10,20,995.94
2012,12,17,10,21,995.94
2012,12,17,10,22,995.94
2012,12,17,10,23,995.94
2012,12,17,10,24,995.94
2012,12,17,10,25,995.94
2012,12,17,10,26,995.94
2012,12,17,10,27,995.94
2012,12,17,10,28,995.94
2012,12,17,10,29,995.94
2012,12,17,10,30,996.71
2012,12,17,10,31,996.75
2012,12,17,10,32,996.75
2012,12,17,10,33,996.75
2012,12,17,10,34,996.75
2012,12,17,10,35,996.75
2012,12,17,10,36,996.75
2012,12,17,10,37,996.75
2012,12,17,10,38,996.75
2012,12,17,10,39,996.75
2012,12,17,10,40,996.75
2012,12,17,10,41,996.75
2012,12,17,10,42,996.75
2012,12,17,10,43,996.75
2012,12,17,10,44,996.75
2012,12,17,10,45,997.07
2012,12,17,10,46,997.09
2012,12,17,10,47,997.09
2012,12,17,10,48,997.09
2012,12,17,10,49,997.09
2012,12,17,10,50,997.09
2012,12,17,10,51,997.09
2012,12,17,10,52,997.09
2012,12,17,10,53,997.09
2012,12,17,10,54,997.09
2012,12,17,10,55,997.09
2012,12,17,10,56,997.09
2012,12,17,10,57,997.09
2012,12,17,10,58,997.09
2012,12,17,10,59,997.09
2012,12,17,11,00,997.48
2012,12,17,11,01,997.50
2012,12,17,11,02,997.50
2012,12,17,11,03,997.50
2012,12,17,11,04,997.50
2012,12,17,11,05,997.50
2012,12,17,11,06,997.50
2012,12,17,11,07,997.50
2012,12,17,11,08,997.50
2012,12,17,11,09,997.50
2012,12,17,11,10,997.50
2012,12,17,11,11,997.50
2012,12,17,11,12,997.50
2012,12,17,11,13,997.50
2012,12,17,11,14,997.50
2012,12,17,11,15,997.88
2012,12,17,11,16,997.90
2012,12,17,11,17,997.90
2012,12,17,11,18,997.90
2012,12,17,11,19,997.90
2012,12,17,11,20,997.90
2012,12,17,11,21,997.90
2012,12,17,11,22,997.90
2012,12,17,11,23,997.90
2012,12,17,11,24,997.90
2012,12,17,11,25,997.90
2012,12,17,11,26,997.90
2012,12,17,11,27,997.90
2012,12,17,11,28,997.90
2012,12,17,11,29,997.90
2012,12,17,11,30,998.48
2012,12,17,11,31,998.51
2012,12,17,11,32,998.51
2012,12,17,11,33,998.51
2012,12,17,11,34,998.51
2012,12,17,11,35,998.51
2012,12,17,11,36,998.51
2012,12,17,11,37,998.51
2012,12,17,11,38,998.51
2012,12,17,11,39,998.51
2012,12,17,11,40,998.51
2012,12,17,11,41,998.51
2012,12,17,11,42,998.51
2012,12,17,11,43,998.51
2012,12,17,11,44,998.51
2012,12,17,11,45,998.97
2012,12,17,11,46,998.99
2012,12,17,11,47,998.99
2012,12,17,11,48,998.99
2012,12,17,11,49,998.99
2012,12,17,11,50,998.99
2012,12,17,11,51,998.99
2012,12,17,11,52,998.99
2012,12,17,11,53,998.99
2012,12,17,11,54,998.99
2012,12,17,11,55,998.99
2012,12,17,11,56,998.99
2012,12,17,11,57,998.99
2012,12,17,11,58,998.99
2012,12,17,11,59,998.99
2012,12,17,12,00,999.04
2012,12,17,12,01,999.05
2012,12,17,12,02,999.05
2012,12,17,12,03,999.05
2012,12,17,12,04,999.05
2012,12,17,12,05,999.05
2012,12,17,12,06,999.05
2012,12,17,12,07,999.05
2012,12,17,12,08,999.05
2012,12,17,12,09,999.05
2012,12,17,12,10,999.05
2012,12,17,12,11,999.05
2012,12,17,12,12,999.05
2012,12,17,12,13,999.05
2012,12,17,12,14,999.05
2012,12,17,12,15,999.60
2012,12,17,12,16,999.63
2012,12,17,12,17,999.63
2012,12,17,12,18,999.63
2012,12,17,12,19,999.63
2012,12,17,12,20,999.63
2012,12,17,12,21,999.63
2012,12,17,12,22,999.63
2012,12,17,12,23,999.63
2012,12,17,12,24,999.63
2012,12,17,12,25,999.63
2012,12,17,12,26,999.63
2012,12,17,12,27,999.63
2012,12,17,12,28,999.63
2012,12,17,12,29,999.63
2012,12,17,12,30,999.59
2012,12,17,12,31,999.59
2012,12,17,12,32,999.59
2012,12,17,12,33,999.59
2012,12,17,12,34,999.59
2012,12,17,12,35,999.59
2012,12,17,12,36,999.59
2012,12,17,12,37,999.59
2012,12,17,12,38,999.59
2012,12,17,12,39,999.59
2012,12,17,12,40,999.59
2012,12,17,12,41,999.59
2012,12,17,12,42,999.59
2012,12,17,12,43,999.59
2012,12,17,12,44,999.59
2012,12,17,12,45,1000.07
2012,12,17,12,46,1000.10
2012,12,17,12,47,1000.10
2012,12,17,12,48,1000.10
2012,12,17,12,49,1000.10
2012,12,17,12,50,1000.10
2012,12,17,12,51,1000.10
2012,12,17,12,52,1000.10
2012,12,17,12,53,1000.10
2012,12,17,12,54,1000.10
2012,12,17,12,55,1000.10
2012,12,17,12,56,1000.10
2012,12,17,12,57,1000.10
2012,12,17,12,58,1000.10
2012,12,17,12,59,1000.10
2012,12,17,13,00,1000.56
2012,12,17,13,01,1000.58
2012,12,17,13,02,1000.58
2012,12,17,13,03,1000.58
2012,12,17,13,04,1000.58
2012,12,17,13,05,1000.58
2012,12,17,13,06,1000.58
2012,12,17,13,07,1000.58
2012,12,17,13,08,1000.58
2012,12,17,13,09,1000.58
2012,12,17,13,10,1000.58
2012,12,17,13,11,1000.58
2012,12,17,13,12,1000.58
2012,12,17,13,13,1000.58
2012,12,17,13,14,1000.58
2012,12,17,13,15,1000.19
2012,12,17,13,16,1000.17
2012,12,17,13,17,1000.17
2012,12,17,13,18,1000.17
2012,12,17,13,19,1000.17
2012,12,17,13,20,1000.17
2012,12,17,13,21,1000.17
2012,12,17,13,22,1000.17
2012,12,17,13,23,1000.17
2012,12,17,13,24,1000.17
2012,12,17,13,25,1000.17
2012,12,17,13,26,1000.17
2012,12,17,13,27,1000.17
2012,12,17,13,28,1000.17
2012,12,17,13,29,1000.17
2012,12,17,13,30,1000.30
2012,12,17,13,31,1000.31
2012,12,17,13,32,1000.31
2012,12,17,13,33,1000.31
2012,12,17,13,34,1000.31
2012,12,17,13,35,1000.31
2012,12,17,13,36,1000.31
2012,12,17,13,37,1000.31
2012,12,17,13,38,1000.31
2012,12,17,13,39,1000.31
2012,12,17,13,40,1000.31
2012,12,17,13,41,1000.31
2012,12,17,13,42,1000.31
2012,12,17,13,43,1000.31
2012,12,17,13,44,1000.31
2012,12,17,13,45,1000.49
2012,12,17,13,46,1000.51
2012,12,17,13,47,1000.51
2012,12,17,13,48,1000.51
2012,12,17,13,49,1000.51
2012,12,17,13,50,1000.51
2012,12,17,13,51,1000.51
2012,12,17,13,52,1000.51
2012,12,17,13,53,1000.51
2012,12,17,13,54,1000.51
2012,12,17,13,55,1000.51
2012,12,17,13,56,1000.51
2012,12,17,13,57,1000.51
2012,12,17,13,58,1000.51
2012,12,17,13,59,1000.51
2012,12,17,14,00,1000.58
2012,12,17,14,01,1000.58
2012,12,17,14,02,1000.58
2012,12,17,14,03,1000.58
2012,12,17,14,04,1000.58
2012,12,17,14,05,1000.58
2012,12,17,14,06,1000.58
2012,12,17,14,07,1000.58
2012,12,17,14,08,1000.58
2012,12,17,14,09,1000.58
2012,12,17,14,10,1000.58
2012,12,17,14,11,1000.58
2012,12,17,14,12,1000.58
2012,12,17,14,13,1000.58
2012,12,17,14,14,1000.58
2012,12,17,14,15,1001.49
2012,12,17,14,16,1001.59
2012,12,17,14,17,1001.59
2012,12,17,14,18,1001.59
2012,12,17,14,19,1001.59
2012,12,17,14,20,1001.59
2012,12,17,14,21,1001.59
2012,12,17,14,22,1001.59
2012,12,17,14,23,1001.59
2012,12,17,14,24,1001.59
2012,12,17,14,25,1001.59
2012,12,17,14,26,1001.59
2012,12,17,14,27,1001.59
2012,12,17,14,28,1001.59
2012,12,17,14,29,1001.59
2012,12,17,14,30,1001.59
2012,12,17,14,31,1001.59
2012,12,17,14,32,1001.59
2012,12,17,14,33,1001.59
2012,12,17,14,34,1001.59
2012,12,17,14,35,1001.59
2012,12,17,14,36,1001.59
2012,12,17,14,37,1001.59
2012,12,17,14,38,1001.59
2012,12,17,14,39,1001.59
2012,12,17,14,40,1001.59
2012,12,17,14,41,1001.59
2012,12,17,14,42,1001.59
2012,12,17,14,43,1001.59
2012,12,17,14,44,1001.59
2012,12,17,14,45,1001.79
2012,12,17,14,46,1001.80
2012,12,17,14,47,1001.80
2012,12,17,14,48,1001.80
2012,12,17,14,49,1001.80
2012,12,17,14,50,1001.80
2012,12,17,14,51,1001.80
2012,12,17,14,52,1001.80
2012,12,17,14,53,1001.80
2012,12,17,14,54,1001.80
2012,12,17,14,55,1001.80
2012,12,17,14,56,1001.80
2012,12,17,14,57,1001.80
2012,12,17,14,58,1001.80
2012,12,17,14,59,1001.80
2012,12,17,15,00,1002.38
2012,12,17,15,01,1002.44
2012,12,17,15,02,1002.44
2012,12,17,15,03,1002.44
2012,12,17,15,04,1002.44
2012,12,17,15,05,1002.44
2012,12,17,15,06,1002.44
2012,12,17,15,07,1002.44
2012,12,17,15,08,1002.44
2012,12,17,15,09,1002.44
2012,12,17,15,10,1002.44
2012,12,17,15,11,1002.44
2012,12,17,15,12,1002.44
2012,12,17,15,13,1002.44
2012,12,17,15,14,1002.44
2012,12,17,15,15,1002.67
2012,12,17,15,16,1002.68
2012,12,17,15,17,1002.68
2012,12,17,15,18,1002.68
2012,12,17,15,19,1002.68
2012,12,17,15,20,1002.68
2012,12,17,15,21,1002.68
2012,12,17,15,22,1002.68
2012,12,17,15,23,1002.68
2012,12,17,15,24,1002.68
2012,12,17,15,25,1002.68
2012,12,17,15,26,1002.68
2012,12,17,15,27,1002.68
2012,12,17,15,28,1002.68
2012,12,17,15,29,1002.68
2012,12,17,15,30,1003.16
2012,12,17,15,31,1003.18
2012,12,17,15,32,1003.18
2012,12,17,15,33,1003.18
2012,12,17,15,34,1003.18
2012,12,17,15,35,1003.18
2012,12,17,15,36,1003.18
2012,12,17,15,37,1003.18
2012,12,17,15,38,1003.18
2012,12,17,15,39,1003.18
2012,12,17,15,40,1003.18
2012,12,17,15,41,1003.18
2012,12,17,15,42,1003.18
2012,12,17,15,43,1003.18
2012,12,17,15,44,1003.18
2012,12,17,15,45,1003.24
2012,12,17,15,46,1003.25
2012,12,17,15,47,1003.25
2012,12,17,15,48,1003.25
2012,12,17,15,49,1003.25
2012,12,17,15,50,1003.25
2012,12,17,15,51,1003.25
2012,12,17,15,52,1003.25
2012,12,17,15,53,1003.25
2012,12,17,15,54,1003.25
2012,12,17,15,55,1003.25
2012,12,17,15,56,1003.25
2012,12,17,15,57,1003.25
2012,12,17,15,58,1003.25
2012,12,17,15,59,1003.25
2012,12,17,16,00,1003.44
2012,12,17,16,01,1003.46
2012,12,17,16,02,1003.46
2012,12,17,16,03,1003.46
2012,12,17,16,04,1003.46
2012,12,17,16,05,1003.46
2012,12,17,16,06,1003.46
2012,12,17,16,07,1003.46
2012,12,17,16,08,1003.46
2012,12,17,16,09,1003.46
2012,12,17,16,10,1003.46
2012,12,17,16,11,1003.46
2012,12,17,16,12,1003.46
2012,12,17,16,13,1003.46
2012,12,17,16,14,1003.46
2012,12,17,16,15,1003.88
2012,12,17,16,16,1003.93
2012,12,17,16,17,1003.93
2012,12,17,16,18,1003.93
2012,12,17,16,19,1003.93
2012,12,17,16,20,1003.93
2012,12,17,16,21,1003.93
2012,12,17,16,22,1003.93
2012,12,17,16,23,1003.93
2012,12,17,16,24,1003.93
2012,12,17,16,25,1003.93
2012,12,17,16,26,1003.93